PBO Station Position Time Series. Reference Frame : NAM14
Format Version,1.1.0
4-character ID,P048
Station name,BozemanRR_MT2007
Begin Date, 2007-04-24
End Date, 2019-10-07
Release Date, 2019-10-08
Reference position, 45.6530440257 North Latitude, -111.2042109732 East Longitude, 1491.97200 meters elevation,
Date, North (mm), East (mm), Vertical (mm), North Std. Deviation (mm), East Std. Deviation (mm),              Vertical Std. Deviation (mm), Quality,
2007-04-24,0.00, 0.00, 0.00, 2.19, 1.58, 7.04, repro,
2007-04-25,-0.70, -0.31, 8.13, 2.21, 1.58, 7.08, repro,
2007-04-26,-0.77, 0.45, 1.15, 2.19, 1.55, 7.01, repro,
2007-04-27,1.07, -0.94, 7.17, 2.19, 1.55, 6.99, repro,
2007-04-28,-2.11, -1.30, 7.87, 2.17, 1.53, 6.91, repro,
2007-04-29,-0.08, -1.93, 10.36, 2.20, 1.56, 7.04, repro,
2007-04-30,0.29, -1.08, 10.13, 2.20, 1.56, 7.10, repro,
2007-05-01,1.31, 0.16, 2.05, 2.18, 1.55, 7.01, repro,
2007-05-02,-0.07, -0.48, 5.73, 2.29, 1.60, 7.33, repro,
2007-05-03,-1.55, -0.81, 7.20, 2.24, 1.57, 7.15, repro,
2007-05-04,0.08, -0.34, 6.71, 2.18, 1.53, 6.94, repro,
2007-05-05,0.41, -1.49, 1.92, 2.23, 1.58, 7.22, repro,
2007-05-06,-0.38, -1.80, -1.95, 2.18, 1.55, 6.99, repro,
2007-05-07,-0.13, -1.67, 4.53, 2.20, 1.55, 7.04, repro,
2007-05-08,-1.56, -0.63, 6.24, 2.19, 1.55, 7.05, repro,
2007-05-09,0.76, 0.26, 4.11, 2.20, 1.55, 7.02, repro,
2007-05-10,-1.19, -1.47, 5.49, 2.29, 1.62, 7.36, repro,
2007-05-11,-0.62, 0.11, -2.87, 2.28, 1.63, 7.38, repro,
2007-05-12,-0.92, -1.26, 2.23, 2.19, 1.55, 7.02, repro,
2007-05-13,-1.58, -0.90, 1.29, 2.24, 1.58, 7.18, repro,
2007-05-14,-0.96, -1.12, 3.25, 2.21, 1.57, 7.07, repro,
2007-05-15,0.70, -1.10, 1.88, 2.19, 1.53, 6.90, repro,
2007-05-16,-0.18, -1.76, -3.70, 2.18, 1.54, 6.96, repro,
2007-05-17,0.23, -1.05, -0.38, 2.20, 1.59, 7.12, repro,
2007-05-18,0.19, -1.27, 2.06, 2.22, 1.60, 7.16, repro,
2007-05-19,-1.94, -1.92, 3.27, 2.21, 1.55, 7.02, repro,
2007-05-20,1.86, -0.82, 9.26, 2.21, 1.54, 7.02, repro,
2007-05-21,-0.13, -2.93, 2.52, 2.19, 1.54, 6.88, repro,
2007-05-22,-0.16, -1.39, -1.62, 2.18, 1.55, 6.97, repro,
2007-05-23,1.09, -0.91, 2.35, 2.17, 1.54, 6.90, repro,
2007-05-24,-0.45, -1.28, 0.67, 2.25, 1.58, 7.11, repro,
2007-05-25,0.60, -1.04, 3.49, 2.24, 1.58, 7.09, repro,
2007-05-26,1.28, 0.24, -4.70, 2.22, 1.57, 7.03, repro,
2007-05-27,-0.34, -1.22, 2.77, 2.18, 1.55, 6.93, repro,
2007-05-28,0.60, -0.00, 5.66, 2.22, 1.62, 7.18, repro,
2007-05-29,0.35, 0.35, -3.74, 2.18, 1.55, 6.91, repro,
2007-05-30,0.08, -1.43, -0.23, 2.22, 1.55, 6.97, repro,
2007-05-31,0.68, -0.48, 2.97, 2.27, 1.63, 7.16, repro,
2007-06-01,0.44, -1.08, 2.23, 2.16, 1.54, 6.87, repro,
2007-06-02,-0.79, -1.02, -0.45, 2.16, 1.55, 6.92, repro,
2007-06-03,-0.67, -1.55, 0.89, 2.17, 1.56, 6.95, repro,
2007-06-04,0.28, -0.69, 2.90, 2.16, 1.55, 6.90, repro,
2007-06-05,0.29, -0.21, 7.21, 2.22, 1.57, 7.10, repro,
2007-06-06,-0.24, -1.15, 13.46, 2.16, 1.54, 6.90, repro,
2007-06-07,-0.67, -2.36, 7.53, 2.14, 1.53, 6.82, repro,
2007-06-08,-0.21, -0.97, 4.39, 2.16, 1.54, 6.91, repro,
2007-06-09,-0.11, -0.36, 0.45, 2.19, 1.58, 7.09, repro,
2007-06-10,-0.73, -1.29, 1.88, 2.15, 1.54, 6.89, repro,
2007-06-11,0.77, -1.73, -3.07, 2.18, 1.57, 7.02, repro,
2007-06-12,0.08, -2.04, 2.89, 2.17, 1.56, 7.01, repro,
2007-06-13,-1.32, -1.40, -0.42, 2.19, 1.60, 7.06, repro,
2007-06-14,-0.48, -2.14, -2.69, 2.19, 1.60, 7.08, repro,
2007-06-15,0.78, -1.70, 3.71, 2.16, 1.55, 6.92, repro,
2007-06-16,-0.40, -0.05, 4.75, 2.23, 1.56, 7.01, repro,
2007-06-17,-0.26, 1.40, 9.79, 2.18, 1.56, 7.02, repro,
2007-06-18,0.86, -1.49, 6.19, 2.15, 1.54, 6.86, repro,
2007-06-19,0.33, -2.21, 0.61, 2.16, 1.55, 6.93, repro,
2007-06-20,0.94, -0.46, -0.85, 2.24, 1.63, 7.21, repro,
2007-06-21,-0.66, -0.38, 1.92, 2.16, 1.55, 6.91, repro,
2007-06-22,-1.88, -1.36, 4.59, 2.15, 1.55, 6.90, repro,
2007-06-23,-0.23, 0.17, 1.67, 2.15, 1.55, 6.88, repro,
2007-06-24,-0.68, -1.13, 3.44, 2.18, 1.58, 7.07, repro,
2007-06-25,0.87, -0.49, -0.07, 2.16, 1.55, 6.91, repro,
2007-06-26,1.01, -0.90, -4.58, 2.15, 1.54, 6.87, repro,
2007-06-27,-0.48, 0.17, -6.17, 2.15, 1.55, 6.93, repro,
2007-06-28,-0.23, -0.37, -0.57, 2.15, 1.54, 6.88, repro,
2007-06-29,-0.87, -0.82, 1.33, 2.15, 1.55, 6.91, repro,
2007-06-30,-0.39, -1.47, 2.14, 2.15, 1.54, 6.91, repro,
2007-07-01,-0.81, -0.15, 4.74, 2.15, 1.54, 6.87, repro,
2007-07-02,-1.02, -0.41, 4.01, 2.15, 1.54, 6.88, repro,
2007-07-03,-0.99, -0.55, 3.37, 2.17, 1.56, 7.02, repro,
2007-07-04,-0.47, -0.16, 2.11, 2.15, 1.55, 6.93, repro,
2007-07-05,-0.10, -0.41, 0.85, 2.16, 1.55, 6.94, repro,
2007-07-06,2.75, -0.41, -0.97, 2.20, 1.59, 6.97, repro,
2007-07-07,-0.70, -1.78, 15.43, 2.21, 1.61, 7.15, repro,
2007-07-08,-0.77, -0.42, 9.62, 2.16, 1.55, 6.93, repro,
2007-07-09,-0.44, -0.54, 6.43, 2.15, 1.55, 6.88, repro,
2007-07-10,-0.44, -0.07, 4.27, 2.15, 1.55, 6.90, repro,
2007-07-11,-1.03, 0.14, 8.61, 2.15, 1.55, 6.88, repro,
2007-07-12,0.87, 0.97, 4.94, 2.15, 1.55, 6.87, repro,
2007-07-13,-1.51, -0.59, 1.81, 2.15, 1.55, 6.87, repro,
2007-07-14,-2.96, -0.77, 9.07, 2.22, 1.65, 7.30, repro,
2007-07-15,-0.90, 0.63, 9.48, 2.19, 1.61, 7.08, repro,
2007-07-16,-0.86, -0.49, 2.06, 2.15, 1.55, 6.89, repro,
2007-07-17,1.48, 1.42, 7.62, 2.16, 1.55, 6.91, repro,
2007-07-18,-0.84, -0.44, 6.43, 2.22, 1.59, 7.08, repro,
2007-07-19,-0.41, 0.89, 11.24, 2.24, 1.59, 7.13, repro,
2007-07-20,0.12, -1.48, 11.97, 2.20, 1.61, 7.11, repro,
2007-07-21,-0.01, -1.77, 14.95, 2.17, 1.60, 7.00, repro,
2007-07-22,-0.15, 1.32, 7.68, 2.19, 1.60, 7.03, repro,
2007-07-23,0.48, -0.17, 15.45, 2.37, 1.80, 7.92, repro,
2007-07-24,-0.00, 1.40, 13.74, 2.22, 1.62, 7.16, repro,
2007-07-25,1.34, -0.55, 4.38, 2.20, 1.60, 7.07, repro,
2007-07-26,2.05, -0.22, 5.06, 2.17, 1.55, 6.92, repro,
2007-07-27,-1.05, 1.36, 6.34, 2.18, 1.61, 7.05, repro,
2007-07-28,-0.10, 2.35, 9.87, 2.23, 1.62, 7.12, repro,
2007-07-29,-0.56, -0.71, 18.54, 2.21, 1.62, 7.17, repro,
2007-07-30,-1.08, -1.90, 7.64, 2.27, 1.66, 7.33, repro,
2007-07-31,-2.27, 0.99, 15.64, 2.22, 1.58, 7.11, repro,
2007-08-01,0.00, 0.57, 13.03, 2.13, 1.54, 6.85, repro,
2007-08-02,0.47, -0.09, 14.66, 2.13, 1.55, 6.86, repro,
2007-08-03,-0.09, -0.60, 9.96, 2.16, 1.56, 6.94, repro,
2007-08-04,1.54, -1.12, 13.26, 2.18, 1.57, 7.03, repro,
2007-08-05,-0.88, -0.45, 19.74, 2.17, 1.56, 7.00, repro,
2007-08-06,-1.27, 0.63, 20.94, 2.56, 1.79, 7.99, repro,
2007-08-07,-0.43, 1.95, 13.36, 2.19, 1.59, 7.07, repro,
2007-08-08,0.34, -0.01, 15.09, 2.16, 1.55, 6.89, repro,
2007-08-09,0.73, -0.20, 15.49, 2.20, 1.62, 7.13, repro,
2007-08-10,1.16, -0.47, 11.54, 2.15, 1.56, 6.92, repro,
2007-08-11,1.18, -0.67, 16.32, 2.14, 1.53, 6.81, repro,
2007-08-12,0.52, 0.72, 13.76, 2.12, 1.53, 6.79, repro,
2007-08-13,-1.38, 0.19, 13.47, 2.15, 1.55, 6.86, repro,
2007-08-14,-1.09, 0.34, 13.55, 2.31, 1.64, 7.41, repro,
2007-08-15,-0.89, 0.05, 15.58, 2.31, 1.63, 7.36, repro,
2007-08-16,1.29, -0.50, 17.52, 2.26, 1.58, 7.16, repro,
2007-08-17,-0.25, 1.01, 8.81, 2.26, 1.59, 7.17, repro,
2007-08-18,0.81, 0.08, 16.62, 2.44, 1.77, 7.90, repro,
2007-08-19,1.09, -0.37, 23.04, 2.35, 1.73, 7.67, repro,
2007-08-20,-0.96, -1.10, 12.61, 2.24, 1.60, 7.18, repro,
2007-08-21,-0.86, -1.16, 15.30, 2.26, 1.59, 7.14, repro,
2007-08-22,0.34, 0.40, 14.54, 2.26, 1.59, 7.07, repro,
2007-08-23,-0.15, 0.41, 17.72, 2.20, 1.55, 6.89, repro,
2007-08-24,-1.17, 0.50, 16.62, 2.32, 1.64, 7.22, repro,
2007-08-25,-0.94, 0.54, 14.64, 2.23, 1.62, 7.09, repro,
2007-08-26,-1.06, 1.87, 13.41, 2.29, 1.66, 7.32, repro,
2007-08-27,1.02, 0.32, 14.40, 2.30, 1.66, 7.29, repro,
2007-08-28,0.29, 0.94, 12.86, 2.24, 1.61, 7.08, repro,
2007-08-29,-0.48, 0.93, 11.26, 2.23, 1.62, 7.11, repro,
2007-08-30,-1.07, 0.07, 9.77, 2.24, 1.63, 7.17, repro,
2007-08-31,0.30, 0.27, 15.01, 2.23, 1.62, 7.07, repro,
2007-09-01,-1.15, 1.34, 8.13, 2.26, 1.63, 7.14, repro,
2007-09-02,-0.25, -0.17, 14.04, 2.27, 1.62, 7.12, repro,
2007-09-03,0.55, -1.17, 10.91, 2.24, 1.61, 7.06, repro,
2007-09-04,0.08, 0.11, 15.92, 2.25, 1.63, 7.19, repro,
2007-09-05,-0.47, 0.92, 19.20, 2.23, 1.61, 7.05, repro,
2007-09-06,-1.43, 0.59, 19.14, 2.26, 1.64, 7.17, repro,
2007-09-07,0.01, 0.21, 13.35, 2.28, 1.62, 7.14, repro,
2007-09-08,0.77, 0.29, 9.83, 2.30, 1.65, 7.27, repro,
2007-09-09,-0.06, 0.16, 10.65, 2.33, 1.71, 7.52, repro,
2007-09-10,-0.15, 0.69, 9.53, 2.24, 1.63, 7.11, repro,
2007-09-11,0.99, 0.26, 9.26, 2.25, 1.63, 7.12, repro,
2007-09-12,-0.30, -0.37, 12.30, 2.27, 1.63, 7.14, repro,
2007-09-13,0.40, 0.42, 15.55, 2.30, 1.66, 7.28, repro,
2007-09-14,-0.51, 0.78, 10.11, 2.28, 1.65, 7.24, repro,
2007-09-15,0.18, -0.63, 10.36, 2.33, 1.66, 7.38, repro,
2007-09-16,-0.16, 0.57, 13.42, 2.24, 1.62, 7.10, repro,
2007-09-17,-0.11, -0.13, 13.80, 2.35, 1.73, 7.57, repro,
2007-09-18,-0.98, 1.14, 13.43, 2.22, 1.62, 7.05, repro,
2007-09-19,-0.70, 0.06, 14.09, 2.17, 1.55, 6.84, repro,
2007-09-20,-0.16, 0.31, 13.77, 2.17, 1.56, 6.92, repro,
2007-09-21,0.22, -0.70, 15.63, 2.27, 1.63, 7.22, repro,
2007-09-22,0.36, 1.11, 13.54, 2.21, 1.56, 6.94, repro,
2007-09-23,-1.68, -0.97, 13.13, 2.32, 1.66, 7.32, repro,
2007-09-24,-0.32, 0.82, 12.04, 2.33, 1.61, 7.24, repro,
2007-09-25,-0.22, 0.56, 9.12, 2.24, 1.60, 7.12, repro,
2007-09-26,-0.45, -1.04, 12.95, 2.29, 1.58, 7.08, repro,
2007-09-27,-1.01, 0.48, 14.43, 2.23, 1.60, 7.09, repro,
2007-09-28,-1.80, -0.00, 22.47, 2.17, 1.59, 7.05, repro,
2007-09-29,-0.16, -0.46, 18.90, 2.20, 1.59, 7.00, repro,
2007-09-30,0.62, -0.23, 16.44, 2.38, 1.68, 7.36, repro,
2007-10-01,0.83, 0.38, 20.08, 2.27, 1.64, 7.20, repro,
2007-10-02,1.04, 0.17, 12.49, 2.30, 1.70, 7.47, repro,
2007-10-03,-1.12, 0.32, 24.74, 2.21, 1.62, 7.11, repro,
2007-10-04,0.64, 0.30, 14.06, 2.30, 1.67, 7.34, repro,
2007-10-05,0.87, 0.32, 17.77, 2.27, 1.64, 7.19, repro,
2007-10-06,-1.87, 0.44, 19.19, 2.27, 1.63, 7.17, repro,
2007-10-07,0.22, 0.58, 10.97, 2.32, 1.65, 7.30, repro,
2007-10-08,0.22, 0.70, 12.72, 2.56, 1.77, 7.89, repro,
2007-10-09,-0.52, 0.67, 12.10, 2.57, 1.85, 7.90, repro,
2007-10-10,1.53, 2.27, 11.51, 2.42, 1.70, 7.53, repro,
2007-10-11,-0.15, -0.32, 16.86, 2.35, 1.71, 7.36, repro,
2007-10-12,0.47, 0.42, 15.89, 2.29, 1.66, 7.31, repro,
2007-10-13,0.37, 0.13, 20.04, 2.21, 1.60, 7.05, repro,
2007-10-14,0.25, 0.43, 12.71, 2.19, 1.59, 6.98, repro,
2007-10-15,0.45, 0.99, 14.29, 2.25, 1.64, 7.16, repro,
2007-10-16,-0.20, 0.76, 18.22, 2.18, 1.59, 6.95, repro,
2007-10-17,0.25, 0.21, 22.58, 2.22, 1.64, 7.20, repro,
2007-10-18,0.24, -0.39, 20.22, 2.29, 1.65, 7.26, repro,
2007-10-19,0.77, 0.66, 24.58, 2.21, 1.60, 7.06, repro,
2007-10-20,-1.55, 0.22, 18.68, 2.21, 1.62, 7.12, repro,
2007-10-21,-0.17, -0.22, 11.38, 2.19, 1.59, 6.99, repro,
2007-10-22,-0.86, 0.85, 7.75, 2.17, 1.59, 6.99, repro,
2007-10-23,-0.54, 0.26, 7.61, 2.29, 1.66, 7.29, repro,
2007-10-24,-0.40, 0.62, 8.32, 2.31, 1.69, 7.44, repro,
2007-10-25,-0.40, 0.63, 11.11, 2.19, 1.58, 6.97, repro,
2007-10-26,1.02, 1.00, 5.45, 2.22, 1.61, 7.12, repro,
2007-10-27,0.40, 0.16, 1.36, 2.20, 1.61, 7.08, repro,
2007-10-28,-0.57, 0.95, 4.25, 2.18, 1.58, 6.99, repro,
2007-10-29,-1.24, 0.23, 8.20, 2.20, 1.59, 7.03, repro,
2007-10-30,0.25, -0.36, 8.11, 2.21, 1.58, 7.05, repro,
2007-10-31,-0.16, 0.73, 6.67, 2.20, 1.57, 6.97, repro,
2007-11-01,0.69, 0.82, 11.54, 2.15, 1.54, 6.82, repro,
2007-11-02,0.16, 0.70, 8.89, 2.16, 1.56, 6.90, repro,
2007-11-03,0.22, -2.01, 3.07, 2.16, 1.56, 6.87, repro,
2007-11-04,-1.12, -3.32, 8.05, 2.16, 1.55, 6.87, repro,
2007-11-05,0.98, 0.08, 8.50, 2.16, 1.55, 6.89, repro,
2007-11-06,-1.19, 0.82, 5.89, 2.22, 1.63, 7.31, repro,
2007-11-07,0.21, 0.66, 9.47, 2.15, 1.57, 6.92, repro,
2007-11-08,0.25, -0.03, 13.89, 2.20, 1.60, 6.99, repro,
2007-11-09,0.09, -0.34, 8.02, 2.21, 1.59, 7.01, repro,
2007-11-10,0.33, 1.22, 16.46, 2.15, 1.55, 6.84, repro,
2007-11-11,-0.30, 0.74, 17.68, 2.16, 1.55, 6.85, repro,
2007-11-12,-0.02, 0.47, 10.77, 2.15, 1.54, 6.82, repro,
2007-11-13,-1.43, -0.97, 20.26, 2.16, 1.56, 6.88, repro,
2007-11-14,-0.45, -0.43, 8.48, 2.18, 1.57, 6.92, repro,
2007-11-15,0.11, 0.40, 10.68, 2.18, 1.57, 6.93, repro,
2007-11-16,-0.34, 0.14, 21.87, 2.16, 1.55, 6.86, repro,
2007-11-17,-0.24, 0.72, 9.65, 2.16, 1.56, 6.86, repro,
2007-11-18,1.03, 0.37, 11.02, 2.17, 1.56, 6.90, repro,
2007-11-19,-0.18, 0.14, 11.17, 2.18, 1.59, 6.99, repro,
2007-11-20,-1.17, -0.03, 11.58, 2.24, 1.65, 7.20, repro,
2007-11-21,-1.17, -0.76, 4.33, 2.22, 1.63, 7.09, repro,
2007-11-22,-0.28, 0.04, 4.67, 2.22, 1.62, 7.08, repro,
2007-11-23,-0.41, -0.50, 6.70, 2.30, 1.70, 7.41, repro,
2007-11-24,-0.92, 0.14, 13.88, 2.25, 1.66, 7.23, repro,
2007-11-25,-1.55, 0.21, 10.48, 2.25, 1.67, 7.19, repro,
2007-11-26,-0.74, 0.67, 7.15, 2.35, 1.71, 7.61, repro,
2007-11-27,-1.05, 0.15, 11.52, 2.25, 1.67, 7.25, repro,
2007-11-28,-0.52, -0.82, 7.90, 2.25, 1.66, 7.21, repro,
2007-11-29,0.11, -0.77, 7.34, 2.33, 1.71, 7.46, repro,
2007-11-30,0.83, -0.23, 6.60, 2.25, 1.68, 7.23, repro,
2007-12-01,0.14, -0.18, 12.00, 2.42, 1.78, 7.87, repro,
2007-12-02,-0.96, 0.12, 11.25, 2.42, 1.77, 7.86, repro,
2007-12-03,0.32, 0.30, 3.47, 2.56, 1.84, 8.24, repro,
2007-12-04,-1.75, 0.34, 5.19, 2.45, 1.87, 8.14, repro,
2007-12-05,-0.49, -2.12, 11.91, 2.54, 1.90, 8.22, repro,
2007-12-06,-1.46, -0.75, 12.66, 2.52, 1.85, 8.04, repro,
2007-12-07,0.65, 0.35, 12.08, 2.54, 1.83, 8.07, repro,
2007-12-08,0.39, 0.47, 10.55, 2.31, 1.71, 7.42, repro,
2007-12-09,-0.14, -0.48, 6.30, 2.67, 2.04, 8.77, repro,
2007-12-10,-0.13, -0.80, 5.48, 2.35, 1.75, 7.65, repro,
2007-12-11,-0.32, 0.17, 5.20, 2.36, 1.74, 7.62, repro,
2007-12-12,-0.18, -1.89, 6.15, 2.40, 1.71, 7.58, repro,
2007-12-13,1.07, -1.22, 3.39, 2.33, 1.67, 7.29, repro,
2007-12-14,-0.88, -0.37, 7.72, 2.22, 1.58, 6.99, repro,
2007-12-15,-1.59, -0.55, 12.57, 2.26, 1.64, 7.13, repro,
2007-12-16,0.14, -2.32, 9.93, 2.23, 1.58, 6.99, repro,
2007-12-17,-0.40, -0.43, 11.23, 2.27, 1.65, 7.16, repro,
2007-12-18,-0.63, -0.25, 15.89, 2.27, 1.64, 7.22, repro,
2007-12-19,-1.34, -1.78, 14.39, 2.31, 1.64, 7.30, repro,
2007-12-20,-1.72, -0.01, 20.07, 2.21, 1.58, 6.99, repro,
2007-12-21,0.71, -1.37, 5.27, 2.37, 1.68, 7.46, repro,
2007-12-22,-0.23, -1.06, 4.55, 2.36, 1.68, 7.52, repro,
2007-12-23,-0.77, 0.15, 6.76, 2.31, 1.66, 7.34, repro,
2007-12-24,-0.41, 0.20, 12.95, 2.31, 1.66, 7.25, repro,
2007-12-25,-0.92, -0.93, 11.00, 2.28, 1.66, 7.24, repro,
2007-12-26,-1.31, -0.09, 11.30, 2.23, 1.59, 7.03, repro,
2007-12-27,-0.71, -0.88, 12.02, 2.32, 1.70, 7.39, repro,
2007-12-28,-1.14, -0.33, 11.87, 2.29, 1.65, 7.32, repro,
2007-12-29,-0.99, -0.77, 9.68, 2.27, 1.61, 7.16, repro,
2007-12-30,-0.10, -1.02, 10.41, 2.28, 1.63, 7.19, repro,
2007-12-31,-0.69, -0.49, 9.17, 2.21, 1.55, 6.91, repro,
2008-01-01,-0.01, -0.60, -4.04, 2.20, 1.56, 6.90, repro,
2008-01-02,-0.68, -0.12, -3.52, 2.21, 1.57, 6.95, repro,
2008-01-03,-2.57, 0.19, 3.39, 2.19, 1.54, 6.84, repro,
2008-01-04,-3.39, -0.26, 15.56, 2.19, 1.56, 6.87, repro,
2008-01-05,0.31, -0.26, 24.46, 2.17, 1.55, 6.83, repro,
2008-01-06,-0.22, -1.29, 14.69, 2.16, 1.53, 6.79, repro,
2008-01-07,-0.02, -0.49, 16.38, 2.17, 1.55, 6.86, repro,
2008-01-08,-0.78, -0.87, 10.73, 2.23, 1.55, 6.94, repro,
2008-01-09,0.14, -0.86, 11.86, 2.25, 1.56, 6.98, repro,
2008-01-10,-1.33, -1.37, 12.73, 2.16, 1.54, 6.79, repro,
2008-01-11,-1.85, -0.33, 10.07, 2.15, 1.54, 6.77, repro,
2008-01-12,-1.29, -0.88, 8.31, 2.14, 1.53, 6.75, repro,
2008-01-13,0.25, -0.22, 3.52, 2.15, 1.54, 6.79, repro,
2008-01-14,-0.93, -0.29, 4.85, 2.22, 1.57, 6.99, repro,
2008-01-15,-0.47, -2.19, 9.66, 2.16, 1.56, 6.88, repro,
2008-01-16,0.41, -1.25, 4.76, 2.22, 1.58, 7.05, repro,
2008-01-17,-0.91, -1.34, 5.79, 2.20, 1.56, 6.96, repro,
2008-01-18,0.46, -0.86, 3.93, 2.17, 1.58, 7.02, repro,
2008-01-19,0.03, -0.83, 2.42, 2.23, 1.58, 7.09, repro,
2008-01-20,0.39, 0.25, 5.09, 2.19, 1.57, 6.94, repro,
2008-01-21,-0.02, -0.10, 3.49, 2.16, 1.56, 6.87, repro,
2008-01-22,-0.43, -0.74, 3.21, 2.21, 1.58, 7.08, repro,
2008-01-23,-0.50, -0.71, 2.18, 2.16, 1.56, 6.89, repro,
2008-01-24,-0.78, -0.28, 8.66, 2.19, 1.57, 6.96, repro,
2008-01-25,-0.77, -0.41, 9.11, 2.24, 1.59, 7.13, repro,
2008-01-26,-2.18, -0.99, 6.76, 2.22, 1.58, 7.07, repro,
2008-01-27,3.03, 0.92, 17.40, 2.19, 1.57, 7.02, repro,
2008-01-28,0.16, -0.30, 30.27, 2.22, 1.58, 7.09, repro,
2008-01-29,0.49, -1.29, 15.54, 2.35, 1.69, 7.53, repro,
2008-01-30,-0.28, -0.43, 14.24, 2.36, 1.65, 7.43, repro,
2008-01-31,-0.78, 0.25, 7.17, 2.18, 1.56, 6.94, repro,
2008-02-01,0.72, 0.44, 4.83, 2.22, 1.57, 7.02, repro,
2008-02-02,0.85, 0.14, 5.65, 2.21, 1.57, 7.03, repro,
2008-02-03,0.64, -0.16, 12.64, 2.20, 1.56, 7.03, repro,
2008-02-04,0.69, -0.56, 10.01, 2.16, 1.55, 6.94, repro,
2008-02-05,0.41, -0.03, 9.90, 2.30, 1.64, 7.30, repro,
2008-02-06,-0.40, -0.90, 10.95, 2.27, 1.63, 7.24, repro,
2008-02-07,-1.44, -0.56, 18.89, 2.22, 1.58, 7.12, repro,
2008-02-08,0.34, 0.41, 7.77, 2.14, 1.54, 6.87, repro,
2008-02-09,0.22, 0.07, 8.24, 2.14, 1.54, 6.82, repro,
2008-02-10,-1.65, -0.64, 1.51, 2.16, 1.55, 6.91, repro,
2008-02-11,-1.30, -0.25, 10.95, 2.22, 1.57, 7.01, repro,
2008-02-12,0.00, -0.87, 1.21, 2.16, 1.55, 6.92, repro,
2008-02-13,1.11, 0.23, 13.15, 2.15, 1.54, 6.85, repro,
2008-02-14,0.18, -0.42, 4.07, 2.14, 1.53, 6.80, repro,
2008-02-15,-0.60, -0.13, 4.21, 2.20, 1.58, 7.02, repro,
2008-02-16,-1.64, -1.16, 5.94, 2.17, 1.55, 6.89, repro,
2008-02-17,-0.24, -0.85, 4.66, 2.16, 1.55, 6.91, repro,
2008-02-18,-0.67, -0.19, 5.32, 2.16, 1.55, 6.89, repro,
2008-02-19,0.21, -0.29, 6.40, 2.15, 1.54, 6.82, repro,
2008-02-20,-1.00, 0.21, 7.05, 2.15, 1.53, 6.79, repro,
2008-02-21,-0.87, -0.14, 11.43, 2.16, 1.54, 6.81, repro,
2008-02-22,-0.17, -0.29, 11.78, 2.17, 1.55, 6.88, repro,
2008-02-23,-1.42, -0.28, 10.68, 2.17, 1.56, 6.94, repro,
2008-02-24,-0.07, 0.29, 12.31, 2.15, 1.54, 6.83, repro,
2008-02-25,-0.84, -0.55, 5.84, 2.15, 1.54, 6.82, repro,
2008-02-26,-0.48, -0.55, -1.04, 2.17, 1.56, 6.90, repro,
2008-02-27,-0.52, -1.21, 1.98, 2.18, 1.55, 6.89, repro,
2008-02-28,-0.68, -0.86, 4.73, 2.20, 1.60, 7.08, repro,
2008-02-29,-1.19, -0.94, 3.90, 2.17, 1.56, 6.92, repro,
2008-03-01,-0.62, -0.52, 9.85, 2.18, 1.58, 7.00, repro,
2008-03-02,-0.54, -1.28, 3.50, 2.18, 1.58, 7.02, repro,
2008-03-03,0.43, -0.50, 3.25, 2.17, 1.55, 6.88, repro,
2008-03-04,-1.28, -1.11, 3.76, 2.17, 1.55, 6.90, repro,
2008-03-05,-0.50, -0.68, 2.51, 2.25, 1.67, 7.29, repro,
2008-03-06,-0.90, -1.42, 0.44, 2.22, 1.58, 7.05, repro,
2008-03-07,-0.74, -0.54, 1.29, 2.15, 1.54, 6.83, repro,
2008-03-08,-0.51, -0.82, 8.05, 2.33, 1.71, 7.60, repro,
2008-03-09,-0.73, 0.16, 4.94, 2.19, 1.58, 7.02, repro,
2008-03-10,-0.32, -0.51, 1.07, 2.17, 1.56, 6.91, repro,
2008-03-11,-0.84, -0.34, 2.73, 2.16, 1.54, 6.86, repro,
2008-03-12,-0.19, -0.40, 0.91, 2.18, 1.57, 7.01, repro,
2008-03-13,-1.09, -1.03, 14.58, 2.25, 1.61, 7.17, repro,
2008-03-14,-1.47, -0.05, 11.24, 2.18, 1.58, 7.05, repro,
2008-03-15,-1.12, -0.16, 8.00, 2.21, 1.59, 7.12, repro,
2008-03-16,0.05, -0.42, 6.62, 2.25, 1.63, 7.27, repro,
2008-03-17,-1.53, -0.59, 8.16, 2.31, 1.70, 7.60, repro,
2008-03-18,0.43, -0.50, 10.25, 2.21, 1.61, 7.18, repro,
2008-03-19,-2.72, 0.52, 6.85, 2.18, 1.58, 7.00, repro,
2008-03-20,-1.45, -0.33, 7.95, 2.20, 1.60, 7.10, repro,
2008-03-21,-0.48, -0.36, -0.21, 2.19, 1.59, 7.06, repro,
2008-03-22,-0.84, -0.48, -2.73, 2.22, 1.63, 7.24, repro,
2008-03-23,-0.95, 0.50, -1.59, 2.19, 1.57, 7.01, repro,
2008-03-24,-2.83, -0.96, 10.89, 2.20, 1.58, 7.05, repro,
2008-03-25,-1.23, -0.17, 9.08, 2.22, 1.61, 7.03, repro,
2008-03-26,-0.24, 0.44, 4.62, 2.23, 1.63, 7.08, repro,
2008-03-27,-0.96, -0.62, 3.49, 2.21, 1.62, 7.00, repro,
2008-03-28,0.46, -0.04, 4.01, 2.17, 1.56, 6.80, repro,
2008-03-29,-0.34, 0.52, 12.64, 2.18, 1.54, 6.85, repro,
2008-03-30,-0.05, -0.44, 4.18, 2.17, 1.54, 6.86, repro,
2008-03-31,-0.31, -0.52, 7.31, 2.17, 1.54, 6.82, repro,
2008-04-01,-1.51, -0.50, 4.80, 2.16, 1.54, 6.81, repro,
2008-04-02,-1.20, -0.34, 8.10, 2.21, 1.55, 6.93, repro,
2008-04-03,-0.44, -1.33, 4.96, 2.19, 1.54, 6.89, repro,
2008-04-04,-1.05, -0.01, 5.74, 2.17, 1.54, 6.87, repro,
2008-04-05,-0.82, -1.35, 9.74, 2.18, 1.54, 6.86, repro,
2008-04-06,-1.55, -0.86, 6.64, 2.17, 1.54, 6.84, repro,
2008-04-07,-1.04, -0.21, 8.72, 2.15, 1.53, 6.77, repro,
2008-04-08,-0.83, 0.02, 4.94, 2.17, 1.54, 6.86, repro,
2008-04-09,-0.34, -0.77, 6.91, 2.20, 1.55, 6.94, repro,
2008-04-10,-0.98, -1.44, 7.60, 2.18, 1.54, 6.88, repro,
2008-04-11,-1.28, -1.11, -1.85, 2.18, 1.54, 6.85, repro,
2008-04-12,-1.36, -1.44, -1.53, 2.16, 1.53, 6.80, repro,
2008-04-13,-2.19, -0.52, 0.22, 2.17, 1.53, 6.85, repro,
2008-04-14,-2.42, -1.33, 8.14, 2.18, 1.54, 6.90, repro,
2008-04-15,-1.49, 0.30, 17.71, 2.23, 1.59, 7.05, repro,
2008-04-16,-1.68, -1.59, 11.73, 2.22, 1.59, 7.01, repro,
2008-04-17,-0.96, -1.29, 2.43, 2.18, 1.53, 6.82, repro,
2008-04-18,-1.00, -2.62, 2.20, 2.17, 1.53, 6.84, repro,
2008-04-19,-0.63, -0.52, 5.76, 2.18, 1.54, 6.88, repro,
2008-04-20,-0.39, -1.10, 8.56, 2.20, 1.53, 6.89, repro,
2008-04-21,-0.48, -1.25, 2.69, 2.21, 1.55, 6.93, repro,
2008-04-22,-2.31, -0.14, 8.28, 2.20, 1.53, 6.88, repro,
2008-04-23,-0.06, -0.05, 5.54, 2.25, 1.59, 7.12, repro,
2008-04-24,-1.37, -0.51, 0.22, 2.21, 1.56, 7.03, repro,
2008-04-25,-0.42, -0.45, 2.92, 2.21, 1.54, 6.97, repro,
2008-04-26,-0.18, -0.68, -3.67, 2.34, 1.62, 7.25, repro,
2008-04-27,-1.01, -0.54, 1.22, 2.29, 1.56, 6.98, repro,
2008-04-28,-0.19, -0.82, -0.99, 2.29, 1.57, 6.97, repro,
2008-04-29,-0.89, -1.54, 10.20, 2.34, 1.59, 7.20, repro,
2008-04-30,-1.01, -1.19, 9.11, 2.23, 1.57, 7.03, repro,
2008-05-01,-0.46, -1.34, 6.67, 2.26, 1.57, 7.09, repro,
2008-05-02,-0.56, -1.11, 3.08, 2.26, 1.57, 7.04, repro,
2008-05-03,-0.75, -0.50, 2.12, 2.26, 1.58, 7.08, repro,
2008-05-04,-1.27, -1.28, 6.29, 2.20, 1.55, 6.89, repro,
2008-05-05,-1.53, -1.75, 0.78, 2.25, 1.58, 7.08, repro,
2008-05-06,-0.74, -1.96, 3.08, 2.26, 1.57, 7.09, repro,
2008-05-07,-1.33, -1.15, 7.05, 2.23, 1.54, 6.92, repro,
2008-05-08,-0.91, -1.15, 4.58, 2.22, 1.54, 6.91, repro,
2008-05-09,-1.02, -0.93, 6.76, 2.22, 1.55, 6.90, repro,
2008-05-10,-1.00, -1.43, 3.80, 2.22, 1.55, 6.94, repro,
2008-05-11,-0.76, -1.59, 7.69, 2.21, 1.54, 6.92, repro,
2008-05-12,-0.52, -0.99, 8.81, 2.26, 1.57, 7.03, repro,
2008-05-13,-1.41, -0.88, 6.13, 2.21, 1.53, 6.87, repro,
2008-05-14,-1.05, -1.00, 8.96, 2.22, 1.54, 6.88, repro,
2008-05-15,-2.45, -1.38, 0.10, 2.21, 1.54, 6.86, repro,
2008-05-16,-0.53, -1.77, -5.98, 2.21, 1.55, 6.97, repro,
2008-05-17,-1.31, -0.01, -2.47, 2.21, 1.54, 6.91, repro,
2008-05-18,-1.48, -2.36, 9.74, 2.26, 1.57, 7.05, repro,
2008-05-19,-0.03, -2.33, 11.79, 2.21, 1.54, 6.91, repro,
2008-05-20,0.04, -0.61, 7.39, 2.21, 1.54, 6.91, repro,
2008-05-21,-1.50, -2.64, 13.11, 2.21, 1.55, 7.00, repro,
2008-05-22,-0.16, -0.87, 7.47, 2.22, 1.57, 7.09, repro,
2008-05-23,0.57, -0.62, 4.65, 2.21, 1.56, 7.01, repro,
2008-05-24,-1.12, -1.20, 1.86, 2.19, 1.54, 6.90, repro,
2008-05-25,-1.06, -1.02, 5.87, 2.19, 1.53, 6.88, repro,
2008-05-26,-1.22, 0.18, 6.51, 2.22, 1.56, 7.06, repro,
2008-05-27,-1.32, -0.18, -0.05, 2.20, 1.54, 6.93, repro,
2008-05-28,-0.99, -0.40, -3.24, 2.20, 1.54, 6.93, repro,
2008-05-29,-0.08, -1.54, -0.56, 2.24, 1.59, 7.09, repro,
2008-05-30,-3.16, -0.09, 4.54, 2.20, 1.54, 6.95, repro,
2008-05-31,-1.19, -0.82, 2.38, 2.20, 1.54, 6.91, repro,
2008-06-01,-1.19, -1.28, 0.48, 2.19, 1.54, 6.94, repro,
2008-06-02,-2.15, -0.71, 2.16, 2.55, 1.73, 7.89, repro,
2008-06-03,-0.67, -0.91, 8.89, 2.29, 1.62, 7.31, repro,
2008-06-04,-1.79, -0.25, 9.59, 2.20, 1.54, 6.93, repro,
2008-06-05,-1.96, -0.73, 7.43, 2.19, 1.54, 6.91, repro,
2008-06-06,-0.27, -1.37, 5.38, 2.22, 1.58, 7.07, repro,
2008-06-07,-3.06, -1.40, 8.18, 2.27, 1.61, 7.13, repro,
2008-06-08,-2.10, -1.38, 1.52, 2.25, 1.59, 7.07, repro,
2008-06-09,-3.03, -1.26, 8.31, 2.25, 1.58, 7.02, repro,
2008-06-10,-0.35, 0.48, 2.86, 2.24, 1.59, 7.05, repro,
2008-06-11,-1.16, -0.62, 5.96, 2.20, 1.55, 6.92, repro,
2008-06-12,-2.40, -1.28, 0.35, 2.22, 1.56, 7.03, repro,
2008-06-13,-1.44, -0.07, 6.05, 2.21, 1.54, 6.93, repro,
2008-06-14,-2.51, 0.08, -1.37, 2.26, 1.58, 7.10, repro,
2008-06-15,-2.36, 0.13, 3.38, 2.27, 1.57, 7.06, repro,
2008-06-16,-2.35, -0.67, 1.18, 2.21, 1.56, 6.97, repro,
2008-06-17,-1.67, 0.19, 1.12, 2.21, 1.56, 7.00, repro,